GFSFLT2_prec_precacc_015.txt.gz
Total_Precipitation_Accumulation
0.00 0.00 0.00 0.00 0.00 0.00 0.00 0.00 0.00 0.00 0.00 0.00 0.00 0.00 0.00 0.01 0.01 0.03 0.05 0.07 0.09 0.11 0.16 0.20 0.23 0.25 0.26
0.00 0.00 0.00 0.00 0.00 0.00 0.00 0.00 0.00 0.00 0.00 0.00 0.00 0.00 0.00 0.01 0.03 0.04 0.05 0.07 0.08 0.09 0.10 0.10 0.10 0.12 0.16
0.00 0.00 0.00 0.01 0.01 0.00 0.00 0.00 0.00 0.00 0.00 0.00 0.00 0.00 0.00 0.01 0.01 0.02 0.01 0.01 0.02 0.02 0.02 0.04 0.05 0.05 0.06
0.03 0.04 0.04 0.01 0.00 0.00 0.00 0.00 0.00 0.00 0.00 0.00 0.00 0.00 0.00 0.00 0.00 0.00 0.00 0.00 0.00 0.00 0.01 0.02 0.03 0.04 0.04
0.10 0.05 0.01 0.00 0.00 0.00 0.00 0.00 0.00 0.00 0.00 0.00 0.00 0.00 0.00 0.00 0.00 0.00 0.00 0.00 0.01 0.02 0.04 0.06 0.08 0.08 0.09
0.05 0.01 0.00 0.00 0.00 0.01 0.03 0.04 0.03 0.00 0.00 0.00 0.00 0.00 0.00 0.00 0.00 0.00 0.00 0.00 0.01 0.02 0.04 0.07 0.07 0.08 0.10
0.01 0.00 0.00 0.01 0.05 0.07 0.05 0.05 0.02 0.00 0.01 0.00 0.00 0.00 0.00 0.00 0.00 0.00 0.00 0.00 0.01 0.02 0.04 0.05 0.05 0.05 0.06
0.00 0.00 0.02 0.02 0.05 0.07 0.02 0.02 0.01 0.00 0.00 0.01 0.00 0.00 0.00 0.00 0.00 0.00 0.00 0.00 0.01 0.02 0.04 0.04 0.05 0.05 0.06
0.01 0.01 0.01 0.00 0.00 0.01 0.02 0.04 0.03 0.00 0.00 0.00 0.00 0.00 0.00 0.00 0.00 0.00 0.00 0.00 0.00 0.01 0.01 0.02 0.03 0.03 0.03
0.00 0.00 0.00 0.00 0.00 0.00 0.01 0.11 0.06 0.06 0.00 0.08 0.03 0.03 0.10 0.00 0.00 0.00 0.00 0.00 0.00 0.00 0.01 0.01 0.03 0.05 0.07
0.00 0.00 0.00 0.00 0.00 0.00 0.00 0.10 0.21 0.12 0.00 0.17 0.19 0.02 0.12 0.03 0.00 0.00 0.00 0.00 0.00 0.00 0.00 0.01 0.04 0.09 0.20
0.00 0.00 0.00 0.00 0.00 0.00 0.00 0.00 0.03 0.12 0.03 0.06 0.30 0.11 0.19 0.09 0.01 0.00 0.00 0.00 0.00 0.02 0.01 0.02 0.04 0.05 0.10
0.00 0.00 0.00 0.00 0.00 0.00 0.00 0.00 0.00 0.00 0.00 0.00 0.09 0.11 0.18 0.18 0.11 0.02 0.03 0.01 0.00 0.01 0.05 0.08 0.10 0.07 0.11
0.01 0.00 0.00 0.00 0.00 0.00 0.01 0.00 0.02 0.00 0.00 0.00 0.01 0.10 0.18 0.07 0.11 0.07 0.01 0.06 0.04 0.06 0.12 0.07 0.06 0.10 0.17
0.01 0.01 0.00 0.00 0.00 0.00 0.02 0.04 0.05 0.01 0.00 0.00 0.00 0.01 0.03 0.03 0.07 0.01 0.01 0.01 0.04 0.12 0.17 0.13 0.11 0.24 0.21
0.01 0.02 0.03 0.02 0.02 0.01 0.01 0.03 0.03 0.01 0.01 0.00 0.01 0.03 0.01 0.00 0.02 0.05 0.04 0.00 0.01 0.05 0.13 0.29 0.14 0.10 0.07
0.03 0.02 0.06 0.05 0.02 0.02 0.01 0.02 0.01 0.00 0.01 0.01 0.06 0.13 0.13 0.02 0.00 0.01 0.13 0.07 0.03 0.03 0.12 0.23 0.28 0.19 0.17

GFSFLT2_prec_precacc_018.txt.gz
Total_Precipitation_Accumulation
0.00 0.00 0.00 0.00 0.00 0.00 0.00 0.00 0.00 0.00 0.00 0.00 0.00 0.00 0.00 0.01 0.01 0.04 0.05 0.08 0.10 0.13 0.19 0.25 0.27 0.29 0.30
0.00 0.00 0.00 0.00 0.00 0.00 0.00 0.00 0.00 0.00 0.00 0.00 0.00 0.00 0.00 0.01 0.03 0.04 0.05 0.07 0.09 0.10 0.10 0.10 0.11 0.13 0.19
0.00 0.00 0.00 0.01 0.01 0.00 0.00 0.00 0.00 0.00 0.00 0.00 0.00 0.00 0.00 0.01 0.01 0.02 0.01 0.01 0.03 0.02 0.02 0.04 0.05 0.06 0.07
0.03 0.04 0.04 0.01 0.00 0.00 0.00 0.00 0.00 0.00 0.00 0.00 0.00 0.00 0.00 0.00 0.00 0.00 0.00 0.00 0.00 0.01 0.01 0.02 0.04 0.05 0.06
0.10 0.05 0.01 0.00 0.00 0.00 0.00 0.00 0.00 0.00 0.00 0.00 0.00 0.00 0.00 0.00 0.00 0.00 0.00 0.01 0.01 0.02 0.04 0.07 0.09 0.10 0.11
0.05 0.01 0.00 0.00 0.00 0.01 0.03 0.04 0.03 0.00 0.00 0.00 0.00 0.00 0.00 0.00 0.00 0.00 0.00 0.01 0.01 0.02 0.05 0.08 0.09 0.09 0.11
0.01 0.00 0.00 0.01 0.05 0.08 0.06 0.06 0.02 0.00 0.01 0.00 0.00 0.00 0.00 0.00 0.00 0.00 0.00 0.00 0.01 0.02 0.04 0.05 0.06 0.06 0.07
0.00 0.00 0.02 0.02 0.06 0.09 0.02 0.02 0.01 0.00 0.00 0.01 0.00 0.00 0.00 0.00 0.00 0.00 0.00 0.00 0.01 0.02 0.04 0.04 0.05 0.06 0.06
0.01 0.01 0.01 0.00 0.00 0.01 0.02 0.04 0.03 0.00 0.00 0.00 0.00 0.00 0.00 0.00 0.00 0.00 0.00 0.00 0.00 0.01 0.01 0.02 0.03 0.04 0.04
0.00 0.00 0.00 0.00 0.00 0.00 0.01 0.12 0.07 0.08 0.00 0.09 0.04 0.03 0.12 0.01 0.00 0.00 0.00 0.00 0.00 0.00 0.01 0.01 0.03 0.05 0.07
0.00 0.00 0.00 0.00 0.00 0.00 0.00 0.10 0.22 0.14 0.00 0.20 0.24 0.03 0.15 0.04 0.00 0.00 0.00 0.00 0.00 0.00 0.00 0.01 0.04 0.09 0.20
0.00 0.00 0.00 0.00 0.00 0.00 0.00 0.00 0.03 0.13 0.03 0.07 0.35 0.12 0.22 0.12 0.01 0.00 0.00 0.00 0.00 0.02 0.01 0.02 0.04 0.05 0.10
0.00 0.00 0.00 0.00 0.00 0.00 0.00 0.00 0.00 0.00 0.00 0.00 0.11 0.14 0.21 0.21 0.12 0.02 0.03 0.01 0.00 0.01 0.05 0.08 0.10 0.07 0.12
0.01 0.00 0.00 0.00 0.00 0.00 0.01 0.01 0.03 0.00 0.00 0.00 0.01 0.12 0.22 0.09 0.12 0.08 0.01 0.06 0.04 0.06 0.12 0.07 0.06 0.10 0.17
0.01 0.01 0.01 0.00 0.00 0.00 0.02 0.04 0.06 0.01 0.00 0.00 0.00 0.01 0.03 0.05 0.11 0.02 0.01 0.01 0.04 0.12 0.17 0.15 0.11 0.24 0.21
0.02 0.02 0.03 0.02 0.03 0.01 0.01 0.03 0.04 0.01 0.01 0.00 0.01 0.03 0.01 0.00 0.03 0.07 0.06 0.01 0.01 0.06 0.13 0.31 0.15 0.10 0.07
0.03 0.03 0.06 0.06 0.02 0.02 0.02 0.03 0.02 0.01 0.01 0.01 0.08 0.17 0.17 0.03 0.00 0.01 0.20 0.11 0.03 0.03 0.12 0.23 0.29 0.19 0.17

GFSFLT2_prec_precacc_024.txt.gz
Total_Precipitation_Accumulation
0.00 0.00 0.00 0.00 0.00 0.00 0.00 0.00 0.00 0.00 0.00 0.00 0.00 0.00 0.00 0.01 0.01 0.04 0.06 0.08 0.11 0.14 0.21 0.28 0.31 0.33 0.35
0.00 0.00 0.00 0.00 0.00 0.00 0.00 0.00 0.00 0.00 0.00 0.00 0.00 0.00 0.00 0.01 0.03 0.05 0.06 0.07 0.09 0.10 0.11 0.10 0.11 0.14 0.19
0.00 0.00 0.00 0.01 0.01 0.00 0.00 0.00 0.00 0.00 0.00 0.00 0.00 0.00 0.01 0.01 0.02 0.02 0.01 0.01 0.03 0.02 0.02 0.04 0.05 0.06 0.08
0.03 0.04 0.04 0.01 0.00 0.00 0.00 0.00 0.00 0.00 0.00 0.00 0.00 0.00 0.00 0.00 0.00 0.00 0.00 0.00 0.00 0.01 0.02 0.03 0.05 0.07 0.08
0.10 0.05 0.01 0.00 0.00 0.00 0.00 0.00 0.00 0.00 0.00 0.00 0.00 0.00 0.00 0.00 0.00 0.00 0.00 0.01 0.01 0.03 0.05 0.07 0.10 0.12 0.13
0.05 0.01 0.00 0.00 0.00 0.01 0.03 0.05 0.04 0.00 0.00 0.00 0.00 0.00 0.00 0.00 0.00 0.00 0.00 0.01 0.01 0.02 0.05 0.08 0.10 0.11 0.14
0.01 0.00 0.00 0.01 0.05 0.08 0.06 0.07 0.03 0.00 0.01 0.00 0.00 0.00 0.00 0.00 0.00 0.00 0.00 0.00 0.01 0.02 0.04 0.06 0.06 0.08 0.09
0.00 0.00 0.02 0.02 0.06 0.12 0.04 0.02 0.01 0.00 0.00 0.01 0.00 0.00 0.00 0.00 0.00 0.00 0.00 0.00 0.01 0.02 0.04 0.05 0.06 0.06 0.07
0.01 0.01 0.01 0.01 0.00 0.01 0.02 0.04 0.03 0.00 0.00 0.00 0.00 0.00 0.00 0.00 0.00 0.00 0.00 0.00 0.00 0.01 0.01 0.02 0.04 0.04 0.04
0.00 0.00 0.00 0.00 0.00 0.00 0.01 0.12 0.08 0.09 0.00 0.09 0.04 0.03 0.13 0.01 0.00 0.00 0.00 0.00 0.00 0.00 0.01 0.01 0.03 0.06 0.07
0.00 0.00 0.00 0.00 0.00 0.00 0.00 0.10 0.23 0.16 0.00 0.24 0.30 0.03 0.18 0.05 0.00 0.00 0.00 0.00 0.00 0.00 0.00 0.01 0.04 0.09 0.20
0.00 0.00 0.00 0.00 0.00 0.00 0.00 0.00 0.03 0.13 0.03 0.09 0.47 0.14 0.28 0.15 0.01 0.00 0.00 0.00 0.00 0.02 0.01 0.02 0.04 0.05 0.10
0.00 0.00 0.00 0.00 0.00 0.00 0.00 0.00 0.00 0.00 0.00 0.00 0.16 0.17 0.27 0.27 0.14 0.02 0.03 0.01 0.00 0.01 0.05 0.08 0.10 0.07 0.12
0.01 0.00 0.00 0.00 0.00 0.00 0.01 0.01 0.03 0.00 0.00 0.00 0.01 0.14 0.27 0.11 0.15 0.11 0.01 0.07 0.04 0.06 0.12 0.07 0.06 0.10 0.17
0.01 0.01 0.01 0.00 0.00 0.00 0.02 0.05 0.07 0.01 0.00 0.00 0.00 0.01 0.04 0.07 0.17 0.03 0.01 0.01 0.04 0.12 0.17 0.15 0.11 0.24 0.21
0.02 0.03 0.04 0.02 0.03 0.01 0.01 0.04 0.05 0.01 0.01 0.00 0.01 0.04 0.02 0.00 0.04 0.12 0.12 0.01 0.01 0.06 0.14 0.36 0.16 0.10 0.07
0.03 0.03 0.07 0.06 0.02 0.03 0.02 0.03 0.02 0.01 0.01 0.01 0.09 0.23 0.24 0.04 0.00 0.02 0.33 0.21 0.06 0.06 0.13 0.27 0.32 0.19 0.17

GFSFLT2_prec_precacc_027.txt.gz
Total_Precipitation_Accumulation
0.00 0.00 0.00 0.00 0.00 0.00 0.00 0.00 0.00 0.00 0.00 0.00 0.00 0.00 0.00 0.01 0.01 0.04 0.06 0.08 0.11 0.14 0.22 0.29 0.32 0.34 0.36
0.00 0.00 0.00 0.00 0.00 0.00 0.00 0.00 0.00 0.00 0.00 0.00 0.00 0.00 0.00 0.01 0.03 0.05 0.06 0.07 0.09 0.11 0.11 0.10 0.11 0.14 0.19
0.00 0.00 0.00 0.01 0.01 0.00 0.00 0.00 0.00 0.00 0.00 0.00 0.00 0.00 0.01 0.01 0.02 0.02 0.01 0.01 0.03 0.02 0.02 0.04 0.05 0.06 0.08
0.03 0.04 0.04 0.01 0.00 0.00 0.00 0.00 0.00 0.00 0.00 0.00 0.00 0.00 0.00 0.00 0.00 0.00 0.00 0.00 0.00 0.01 0.02 0.03 0.05 0.07 0.08
0.10 0.05 0.01 0.00 0.00 0.00 0.00 0.00 0.00 0.00 0.00 0.00 0.00 0.00 0.00 0.00 0.00 0.00 0.00 0.01 0.01 0.03 0.05 0.08 0.10 0.12 0.14
0.05 0.01 0.00 0.00 0.00 0.01 0.03 0.05 0.05 0.00 0.00 0.00 0.00 0.00 0.00 0.00 0.00 0.00 0.00 0.01 0.01 0.02 0.05 0.09 0.10 0.12 0.15
0.01 0.00 0.00 0.01 0.05 0.08 0.07 0.07 0.03 0.00 0.01 0.00 0.00 0.00 0.00 0.00 0.00 0.00 0.00 0.00 0.01 0.02 0.04 0.06 0.07 0.08 0.10
0.00 0.00 0.02 0.02 0.06 0.12 0.05 0.02 0.01 0.00 0.00 0.01 0.00 0.00 0.00 0.00 0.00 0.00 0.00 0.00 0.01 0.02 0.04 0.05 0.06 0.07 0.08
0.01 0.01 0.01 0.01 0.00 0.01 0.02 0.04 0.03 0.00 0.00 0.00 0.00 0.00 0.00 0.00 0.00 0.00 0.00 0.00 0.00 0.01 0.01 0.02 0.04 0.04 0.04
0.00 0.00 0.00 0.00 0.00 0.00 0.01 0.12 0.09 0.10 0.00 0.10 0.04 0.03 0.14 0.01 0.00 0.00 0.00 0.00 0.00 0.00 0.01 0.01 0.03 0.06 0.07
0.00 0.00 0.00 0.00 0.00 0.00 0.00 0.10 0.23 0.17 0.00 0.27 0.31 0.03 0.19 0.06 0.00 0.00 0.00 0.00 0.00 0.00 0.00 0.01 0.04 0.09 0.21
0.00 0.00 0.00 0.00 0.00 0.00 0.00 0.00 0.03 0.14 0.03 0.10 0.51 0.15 0.30 0.16 0.01 0.00 0.00 0.00 0.00 0.02 0.01 0.02 0.04 0.05 0.11
0.00 0.00 0.00 0.00 0.00 0.00 0.00 0.00 0.00 0.00 0.00 0.00 0.16 0.17 0.29 0.29 0.15 0.03 0.03 0.01 0.00 0.01 0.05 0.08 0.10 0.07 0.12
0.01 0.00 0.00 0.00 0.00 0.00 0.01 0.01 0.03 0.00 0.00 0.00 0.01 0.15 0.28 0.12 0.16 0.11 0.01 0.07 0.04 0.06 0.12 0.07 0.06 0.10 0.17
0.01 0.01 0.01 0.00 0.00 0.00 0.02 0.06 0.08 0.01 0.00 0.00 0.00 0.01 0.04 0.07 0.18 0.03 0.01 0.01 0.04 0.12 0.18 0.16 0.11 0.24 0.21
0.02 0.03 0.04 0.02 0.03 0.01 0.01 0.04 0.06 0.01 0.01 0.00 0.01 0.05 0.02 0.00 0.04 0.12 0.13 0.01 0.01 0.06 0.15 0.40 0.17 0.10 0.07
0.03 0.03 0.07 0.07 0.02 0.03 0.02 0.03 0.02 0.01 0.01 0.01 0.10 0.25 0.28 0.04 0.00 0.02 0.35 0.24 0.06 0.06 0.13 0.28 0.33 0.19 0.17

GFSFLT2_prec_precacc_030.txt.gz
Total_Precipitation_Accumulation
0.01 0.01 0.02 0.02 0.01 0.00 0.00 0.00 0.00 0.00 0.00 0.00 0.00 0.00 0.01 0.01 0.02 0.04 0.06 0.09 0.11 0.15 0.22 0.29 0.32 0.35 0.37
0.05 0.06 0.06 0.04 0.03 0.01 0.00 0.00 0.00 0.00 0.00 0.00 0.00 0.00 0.00 0.01 0.03 0.05 0.06 0.07 0.10 0.11 0.11 0.11 0.11 0.14 0.20
0.05 0.02 0.03 0.04 0.04 0.02 0.00 0.00 0.00 0.00 0.00 0.00 0.00 0.00 0.01 0.01 0.02 0.02 0.01 0.01 0.03 0.02 0.03 0.04 0.06 0.07 0.08
0.06 0.06 0.05 0.02 0.00 0.00 0.00 0.00 0.00 0.00 0.00 0.00 0.00 0.00 0.00 0.00 0.00 0.00 0.00 0.00 0.00 0.01 0.02 0.03 0.05 0.07 0.08
0.12 0.05 0.01 0.00 0.00 0.00 0.00 0.00 0.00 0.00 0.00 0.00 0.00 0.00 0.00 0.00 0.00 0.00 0.00 0.01 0.01 0.03 0.05 0.08 0.11 0.13 0.14
0.05 0.01 0.00 0.00 0.00 0.01 0.03 0.05 0.05 0.00 0.00 0.00 0.00 0.00 0.00 0.00 0.00 0.00 0.00 0.01 0.01 0.02 0.06 0.09 0.10 0.12 0.15
0.01 0.00 0.00 0.01 0.06 0.08 0.07 0.08 0.03 0.00 0.01 0.00 0.00 0.00 0.00 0.00 0.00 0.00 0.00 0.00 0.01 0.02 0.04 0.06 0.07 0.09 0.10
0.00 0.00 0.02 0.03 0.07 0.13 0.05 0.02 0.01 0.00 0.00 0.01 0.00 0.00 0.00 0.00 0.00 0.00 0.00 0.00 0.01 0.02 0.04 0.05 0.06 0.07 0.08
0.01 0.01 0.01 0.01 0.00 0.01 0.02 0.04 0.03 0.00 0.00 0.00 0.00 0.00 0.00 0.00 0.00 0.00 0.00 0.00 0.00 0.01 0.01 0.02 0.04 0.05 0.04
0.00 0.00 0.00 0.00 0.00 0.00 0.01 0.12 0.09 0.10 0.00 0.10 0.04 0.03 0.14 0.01 0.00 0.00 0.00 0.00 0.00 0.00 0.01 0.01 0.03 0.06 0.07
0.00 0.00 0.00 0.00 0.00 0.00 0.00 0.10 0.24 0.17 0.00 0.28 0.32 0.03 0.20 0.06 0.00 0.00 0.00 0.00 0.00 0.00 0.00 0.01 0.04 0.10 0.21
0.00 0.00 0.00 0.00 0.00 0.00 0.00 0.00 0.04 0.14 0.03 0.11 0.53 0.15 0.31 0.17 0.02 0.00 0.00 0.00 0.00 0.02 0.01 0.02 0.04 0.05 0.11
0.00 0.00 0.00 0.00 0.00 0.00 0.00 0.00 0.00 0.00 0.00 0.00 0.17 0.17 0.30 0.30 0.15 0.03 0.03 0.01 0.00 0.01 0.05 0.08 0.10 0.08 0.12
0.01 0.00 0.00 0.00 0.00 0.00 0.01 0.01 0.03 0.00 0.00 0.00 0.01 0.15 0.29 0.12 0.17 0.12 0.02 0.07 0.04 0.06 0.12 0.08 0.06 0.11 0.17
0.01 0.01 0.01 0.00 0.00 0.00 0.02 0.06 0.08 0.02 0.00 0.00 0.00 0.01 0.04 0.08 0.19 0.04 0.01 0.01 0.04 0.12 0.18 0.16 0.11 0.24 0.21
0.02 0.03 0.04 0.02 0.03 0.01 0.01 0.05 0.06 0.02 0.01 0.00 0.01 0.05 0.02 0.00 0.05 0.12 0.13 0.02 0.01 0.06 0.16 0.42 0.18 0.10 0.07
0.04 0.03 0.07 0.07 0.03 0.03 0.02 0.03 0.03 0.01 0.01 0.01 0.10 0.27 0.31 0.05 0.00 0.02 0.36 0.25 0.06 0.06 0.14 0.28 0.34 0.19 0.17

GFSFLT2_prec_precacc_036.txt.gz
Total_Precipitation_Accumulation
0.44 0.36 0.28 0.22 0.16 0.08 0.02 0.01 0.00 0.01 0.00 0.00 0.00 0.00 0.01 0.01 0.02 0.04 0.06 0.09 0.11 0.15 0.22 0.29 0.33 0.35 0.38
0.44 0.38 0.28 0.17 0.09 0.03 0.01 0.00 0.00 0.00 0.00 0.00 0.00 0.00 0.00 0.01 0.03 0.05 0.06 0.07 0.10 0.11 0.11 0.11 0.11 0.14 0.20
0.30 0.16 0.09 0.07 0.06 0.02 0.00 0.00 0.00 0.00 0.00 0.00 0.00 0.00 0.01 0.01 0.02 0.02 0.01 0.01 0.03 0.02 0.03 0.04 0.06 0.07 0.08
0.11 0.09 0.07 0.02 0.01 0.00 0.00 0.00 0.00 0.00 0.00 0.00 0.00 0.00 0.00 0.00 0.00 0.00 0.00 0.00 0.00 0.01 0.02 0.04 0.06 0.07 0.08
0.13 0.06 0.01 0.00 0.00 0.00 0.00 0.00 0.00 0.00 0.00 0.00 0.00 0.00 0.00 0.00 0.00 0.00 0.00 0.01 0.01 0.03 0.05 0.08 0.11 0.13 0.15
0.05 0.01 0.00 0.00 0.00 0.01 0.03 0.05 0.05 0.00 0.00 0.00 0.00 0.00 0.00 0.00 0.00 0.00 0.00 0.01 0.01 0.02 0.06 0.09 0.11 0.12 0.15
0.01 0.00 0.00 0.01 0.06 0.08 0.07 0.08 0.03 0.00 0.01 0.00 0.00 0.00 0.00 0.00 0.00 0.00 0.00 0.00 0.01 0.02 0.04 0.06 0.07 0.09 0.11
0.00 0.00 0.02 0.03 0.07 0.13 0.05 0.02 0.01 0.00 0.00 0.01 0.00 0.00 0.00 0.00 0.00 0.00 0.00 0.00 0.01 0.02 0.04 0.05 0.06 0.07 0.09
0.01 0.01 0.01 0.01 0.00 0.01 0.02 0.04 0.03 0.00 0.00 0.00 0.00 0.00 0.00 0.00 0.00 0.00 0.00 0.00 0.00 0.01 0.01 0.02 0.04 0.05 0.04
0.00 0.00 0.00 0.00 0.00 0.00 0.01 0.12 0.09 0.11 0.00 0.10 0.04 0.03 0.15 0.01 0.00 0.00 0.00 0.00 0.00 0.00 0.01 0.01 0.03 0.06 0.07
0.00 0.00 0.00 0.00 0.00 0.00 0.00 0.10 0.24 0.17 0.00 0.29 0.33 0.04 0.21 0.06 0.00 0.00 0.00 0.00 0.00 0.00 0.00 0.01 0.04 0.10 0.21
0.00 0.00 0.00 0.00 0.00 0.00 0.00 0.00 0.04 0.14 0.03 0.12 0.56 0.15 0.33 0.19 0.02 0.00 0.00 0.00 0.00 0.02 0.01 0.02 0.04 0.05 0.11
0.00 0.00 0.00 0.00 0.00 0.00 0.00 0.00 0.00 0.00 0.00 0.00 0.17 0.18 0.33 0.33 0.16 0.03 0.03 0.01 0.00 0.01 0.05 0.08 0.10 0.08 0.12
0.01 0.00 0.00 0.00 0.00 0.00 0.01 0.01 0.04 0.00 0.00 0.00 0.01 0.16 0.33 0.14 0.20 0.15 0.02 0.08 0.04 0.06 0.12 0.08 0.06 0.11 0.17
0.01 0.01 0.01 0.00 0.00 0.00 0.02 0.06 0.09 0.02 0.00 0.00 0.00 0.01 0.06 0.10 0.23 0.04 0.01 0.01 0.04 0.12 0.19 0.18 0.11 0.24 0.21
0.02 0.03 0.04 0.03 0.04 0.02 0.02 0.05 0.07 0.02 0.01 0.00 0.01 0.06 0.02 0.00 0.05 0.12 0.13 0.02 0.01 0.06 0.16 0.46 0.19 0.10 0.07
0.04 0.04 0.08 0.08 0.04 0.04 0.03 0.04 0.03 0.01 0.01 0.01 0.11 0.29 0.35 0.08 0.00 0.02 0.36 0.25 0.06 0.06 0.14 0.28 0.35 0.19 0.17

GFSFLT2_prec_precacc_039.txt.gz
Total_Precipitation_Accumulation
0.75 0.68 0.64 0.57 0.50 0.35 0.21 0.13 0.08 0.05 0.02 0.00 0.00 0.00 0.01 0.01 0.02 0.04 0.06 0.09 0.11 0.15 0.22 0.29 0.33 0.35 0.38
0.71 0.63 0.49 0.32 0.17 0.08 0.03 0.02 0.01 0.00 0.00 0.00 0.00 0.00 0.00 0.01 0.03 0.05 0.06 0.07 0.10 0.11 0.11 0.11 0.11 0.14 0.20
0.36 0.23 0.15 0.10 0.08 0.04 0.01 0.00 0.00 0.00 0.00 0.00 0.00 0.00 0.01 0.01 0.02 0.02 0.01 0.01 0.03 0.02 0.03 0.04 0.06 0.07 0.08
0.17 0.12 0.08 0.03 0.01 0.00 0.00 0.00 0.00 0.00 0.00 0.00 0.00 0.00 0.00 0.00 0.00 0.00 0.00 0.00 0.00 0.01 0.02 0.04 0.06 0.07 0.08
0.14 0.06 0.02 0.00 0.00 0.00 0.00 0.00 0.00 0.00 0.00 0.00 0.00 0.00 0.00 0.00 0.00 0.00 0.00 0.01 0.01 0.03 0.05 0.08 0.11 0.13 0.15
0.06 0.02 0.00 0.00 0.00 0.01 0.03 0.05 0.05 0.00 0.00 0.00 0.00 0.00 0.00 0.00 0.00 0.00 0.00 0.01 0.01 0.02 0.06 0.09 0.11 0.12 0.16
0.01 0.00 0.00 0.01 0.06 0.08 0.07 0.08 0.03 0.00 0.01 0.00 0.00 0.00 0.00 0.00 0.00 0.00 0.00 0.00 0.01 0.02 0.04 0.06 0.07 0.09 0.11
0.00 0.00 0.02 0.03 0.07 0.13 0.05 0.02 0.01 0.00 0.00 0.01 0.00 0.00 0.00 0.00 0.00 0.00 0.00 0.00 0.01 0.02 0.04 0.05 0.06 0.07 0.09
0.01 0.01 0.01 0.01 0.00 0.01 0.02 0.04 0.03 0.00 0.00 0.00 0.00 0.00 0.00 0.00 0.00 0.00 0.00 0.00 0.00 0.01 0.01 0.02 0.04 0.05 0.04
0.00 0.00 0.00 0.00 0.00 0.00 0.01 0.12 0.09 0.11 0.00 0.10 0.04 0.03 0.15 0.01 0.00 0.00 0.00 0.00 0.00 0.00 0.01 0.01 0.03 0.06 0.07
0.00 0.00 0.00 0.00 0.00 0.00 0.00 0.10 0.24 0.17 0.00 0.29 0.33 0.04 0.22 0.06 0.00 0.00 0.00 0.00 0.00 0.00 0.00 0.01 0.04 0.10 0.21
0.00 0.00 0.00 0.00 0.00 0.00 0.00 0.00 0.04 0.14 0.03 0.12 0.56 0.16 0.34 0.19 0.02 0.00 0.00 0.00 0.00 0.02 0.01 0.02 0.04 0.05 0.11
0.00 0.00 0.00 0.00 0.00 0.00 0.00 0.00 0.00 0.00 0.00 0.00 0.18 0.18 0.34 0.34 0.17 0.03 0.03 0.01 0.00 0.01 0.05 0.08 0.10 0.08 0.12
0.01 0.00 0.00 0.00 0.00 0.00 0.01 0.01 0.04 0.00 0.00 0.00 0.01 0.17 0.34 0.15 0.21 0.15 0.02 0.08 0.04 0.06 0.12 0.08 0.06 0.11 0.17
0.01 0.01 0.01 0.00 0.00 0.00 0.02 0.06 0.09 0.02 0.00 0.00 0.00 0.01 0.06 0.11 0.24 0.04 0.01 0.01 0.04 0.12 0.19 0.18 0.11 0.24 0.21
0.02 0.03 0.04 0.03 0.04 0.02 0.02 0.06 0.07 0.02 0.01 0.00 0.01 0.06 0.03 0.00 0.05 0.13 0.13 0.02 0.01 0.06 0.16 0.47 0.20 0.10 0.07
0.04 0.04 0.08 0.08 0.04 0.04 0.03 0.04 0.04 0.02 0.01 0.01 0.11 0.29 0.37 0.08 0.00 0.02 0.36 0.25 0.06 0.06 0.14 0.28 0.35 0.19 0.17

GFSFLT2_prec_precacc_042.txt.gz
Total_Precipitation_Accumulation
0.79 0.73 0.70 0.67 0.62 0.48 0.33 0.22 0.16 0.16 0.13 0.10 0.06 0.03 0.02 0.01 0.02 0.04 0.06 0.09 0.11 0.15 0.22 0.29 0.33 0.35 0.38
0.84 0.74 0.62 0.45 0.30 0.17 0.11 0.09 0.05 0.05 0.05 0.02 0.01 0.00 0.00 0.01 0.03 0.05 0.06 0.07 0.10 0.11 0.11 0.11 0.12 0.15 0.20
0.43 0.34 0.29 0.23 0.19 0.13 0.08 0.04 0.01 0.01 0.00 0.00 0.00 0.00 0.01 0.01 0.02 0.02 0.01 0.01 0.03 0.02 0.03 0.04 0.06 0.07 0.08
0.27 0.20 0.16 0.10 0.06 0.04 0.02 0.01 0.00 0.00 0.00 0.00 0.00 0.00 0.00 0.00 0.00 0.00 0.00 0.00 0.00 0.01 0.02 0.04 0.06 0.07 0.08
0.17 0.11 0.05 0.02 0.01 0.01 0.01 0.00 0.00 0.00 0.00 0.00 0.00 0.00 0.00 0.00 0.00 0.00 0.00 0.01 0.01 0.03 0.05 0.08 0.11 0.13 0.15
0.07 0.02 0.00 0.00 0.00 0.01 0.03 0.05 0.05 0.00 0.00 0.00 0.00 0.00 0.00 0.00 0.00 0.00 0.00 0.01 0.01 0.02 0.06 0.09 0.11 0.12 0.16
0.01 0.00 0.00 0.01 0.06 0.08 0.07 0.08 0.03 0.00 0.01 0.00 0.00 0.00 0.00 0.00 0.00 0.00 0.00 0.00 0.01 0.02 0.04 0.06 0.07 0.09 0.11
0.00 0.00 0.02 0.03 0.07 0.13 0.05 0.02 0.01 0.00 0.00 0.01 0.00 0.00 0.00 0.00 0.00 0.00 0.00 0.00 0.01 0.02 0.04 0.05 0.06 0.07 0.09
0.01 0.01 0.01 0.01 0.00 0.01 0.02 0.04 0.03 0.00 0.00 0.00 0.00 0.00 0.00 0.00 0.00 0.00 0.00 0.00 0.00 0.01 0.01 0.02 0.04 0.05 0.04
0.00 0.00 0.00 0.00 0.00 0.00 0.01 0.12 0.09 0.11 0.00 0.10 0.04 0.03 0.15 0.01 0.00 0.00 0.00 0.00 0.00 0.00 0.01 0.01 0.03 0.06 0.07
0.00 0.00 0.00 0.00 0.00 0.00 0.00 0.10 0.24 0.17 0.00 0.29 0.34 0.04 0.22 0.07 0.00 0.00 0.00 0.00 0.00 0.00 0.00 0.01 0.04 0.10 0.21
0.00 0.00 0.00 0.00 0.00 0.00 0.00 0.00 0.04 0.14 0.03 0.12 0.57 0.16 0.34 0.20 0.02 0.00 0.00 0.00 0.00 0.02 0.01 0.02 0.04 0.05 0.11
0.00 0.00 0.00 0.00 0.00 0.00 0.00 0.00 0.00 0.00 0.00 0.00 0.18 0.19 0.36 0.35 0.18 0.03 0.03 0.01 0.00 0.01 0.05 0.08 0.10 0.08 0.12
0.01 0.00 0.00 0.00 0.00 0.00 0.01 0.01 0.04 0.00 0.00 0.00 0.01 0.17 0.34 0.16 0.22 0.16 0.02 0.08 0.04 0.06 0.12 0.08 0.06 0.11 0.17
0.01 0.01 0.01 0.00 0.00 0.00 0.02 0.06 0.09 0.02 0.00 0.00 0.00 0.01 0.06 0.11 0.26 0.05 0.01 0.01 0.04 0.12 0.19 0.18 0.11 0.24 0.21
0.02 0.03 0.05 0.03 0.04 0.02 0.02 0.06 0.07 0.02 0.02 0.00 0.01 0.07 0.03 0.01 0.06 0.13 0.13 0.02 0.01 0.06 0.16 0.47 0.20 0.10 0.07
0.04 0.04 0.08 0.08 0.04 0.04 0.03 0.04 0.04 0.02 0.01 0.01 0.11 0.30 0.38 0.08 0.00 0.02 0.36 0.25 0.06 0.06 0.14 0.28 0.35 0.19 0.17

GFSFLT2_prec_precacc_045.txt.gz
Total_Precipitation_Accumulation
0.90 0.84 0.80 0.77 0.71 0.55 0.39 0.27 0.20 0.23 0.21 0.17 0.11 0.09 0.07 0.05 0.04 0.05 0.06 0.09 0.11 0.15 0.22 0.29 0.33 0.35 0.38
0.94 0.85 0.73 0.59 0.42 0.27 0.19 0.16 0.13 0.15 0.12 0.07 0.05 0.03 0.01 0.02 0.03 0.05 0.06 0.07 0.10 0.11 0.11 0.11 0.12 0.15 0.20
0.44 0.38 0.35 0.33 0.34 0.29 0.22 0.13 0.06 0.05 0.02 0.01 0.01 0.00 0.01 0.01 0.02 0.02 0.01 0.01 0.03 0.02 0.03 0.04 0.06 0.07 0.08
0.27 0.21 0.17 0.12 0.09 0.07 0.05 0.03 0.01 0.00 0.00 0.00 0.00 0.00 0.00 0.00 0.00 0.00 0.00 0.00 0.00 0.01 0.02 0.04 0.06 0.07 0.08
0.17 0.11 0.06 0.03 0.03 0.02 0.02 0.01 0.00 0.00 0.00 0.00 0.00 0.00 0.00 0.00 0.00 0.00 0.00 0.01 0.01 0.03 0.05 0.08 0.11 0.13 0.15
0.07 0.03 0.00 0.00 0.00 0.01 0.03 0.05 0.05 0.00 0.00 0.00 0.00 0.00 0.00 0.00 0.00 0.00 0.00 0.01 0.01 0.02 0.06 0.09 0.11 0.12 0.16
0.01 0.00 0.00 0.01 0.06 0.08 0.07 0.08 0.03 0.00 0.01 0.00 0.00 0.00 0.00 0.00 0.00 0.00 0.00 0.00 0.01 0.02 0.04 0.06 0.07 0.09 0.11
0.00 0.00 0.02 0.03 0.07 0.13 0.05 0.02 0.01 0.00 0.00 0.01 0.00 0.00 0.00 0.00 0.00 0.00 0.00 0.00 0.01 0.02 0.04 0.05 0.06 0.07 0.09
0.01 0.01 0.01 0.01 0.00 0.01 0.02 0.04 0.03 0.00 0.00 0.00 0.00 0.00 0.00 0.00 0.00 0.00 0.00 0.00 0.00 0.01 0.01 0.02 0.04 0.05 0.04
0.00 0.00 0.00 0.00 0.00 0.00 0.01 0.12 0.09 0.11 0.00 0.10 0.04 0.03 0.15 0.01 0.00 0.00 0.00 0.00 0.00 0.00 0.01 0.01 0.03 0.06 0.07
0.00 0.00 0.00 0.00 0.00 0.00 0.00 0.10 0.24 0.17 0.00 0.29 0.34 0.04 0.22 0.07 0.00 0.00 0.00 0.00 0.00 0.00 0.00 0.01 0.04 0.10 0.21
0.00 0.00 0.00 0.00 0.00 0.00 0.00 0.00 0.04 0.14 0.03 0.12 0.57 0.16 0.35 0.20 0.02 0.00 0.00 0.00 0.00 0.02 0.01 0.02 0.04 0.05 0.11
0.00 0.00 0.00 0.00 0.00 0.00 0.00 0.00 0.00 0.00 0.00 0.00 0.18 0.19 0.37 0.36 0.18 0.03 0.03 0.01 0.00 0.01 0.05 0.08 0.10 0.08 0.12
0.01 0.00 0.00 0.00 0.00 0.00 0.01 0.01 0.04 0.00 0.00 0.00 0.01 0.17 0.35 0.16 0.23 0.16 0.02 0.08 0.04 0.06 0.12 0.08 0.06 0.11 0.17
0.01 0.01 0.01 0.00 0.00 0.00 0.02 0.06 0.10 0.02 0.00 0.00 0.00 0.01 0.06 0.11 0.26 0.05 0.01 0.01 0.04 0.12 0.19 0.18 0.11 0.24 0.21
0.02 0.03 0.05 0.03 0.04 0.02 0.02 0.06 0.07 0.02 0.02 0.00 0.01 0.07 0.03 0.01 0.06 0.13 0.13 0.02 0.01 0.06 0.16 0.48 0.20 0.10 0.07
0.04 0.04 0.08 0.08 0.04 0.04 0.03 0.04 0.04 0.02 0.01 0.01 0.11 0.31 0.39 0.09 0.00 0.02 0.36 0.25 0.06 0.06 0.14 0.28 0.35 0.19 0.17

GFSFLT2_prec_precacc_051.txt.gz
Total_Precipitation_Accumulation
0.90 0.84 0.80 0.78 0.74 0.61 0.50 0.40 0.38 0.43 0.36 0.31 0.24 0.20 0.17 0.14 0.12 0.12 0.12 0.14 0.17 0.21 0.28 0.34 0.36 0.37 0.39
0.94 0.85 0.73 0.59 0.44 0.31 0.26 0.25 0.23 0.27 0.22 0.14 0.12 0.12 0.12 0.13 0.13 0.11 0.11 0.12 0.14 0.15 0.13 0.12 0.12 0.15 0.20
0.44 0.38 0.35 0.33 0.34 0.31 0.26 0.19 0.14 0.14 0.10 0.08 0.08 0.08 0.08 0.07 0.06 0.05 0.05 0.03 0.04 0.03 0.03 0.04 0.06 0.07 0.08
0.27 0.21 0.17 0.12 0.09 0.08 0.07 0.04 0.02 0.01 0.00 0.00 0.00 0.00 0.00 0.00 0.00 0.00 0.00 0.00 0.00 0.01 0.02 0.04 0.06 0.07 0.08
0.17 0.11 0.06 0.03 0.03 0.02 0.02 0.01 0.00 0.00 0.00 0.00 0.00 0.00 0.00 0.00 0.00 0.00 0.00 0.01 0.01 0.03 0.05 0.08 0.11 0.13 0.15
0.07 0.03 0.00 0.00 0.00 0.01 0.03 0.05 0.05 0.00 0.00 0.00 0.00 0.00 0.00 0.00 0.00 0.00 0.00 0.01 0.01 0.02 0.06 0.10 0.11 0.12 0.16
0.01 0.00 0.00 0.01 0.06 0.08 0.07 0.08 0.03 0.00 0.01 0.00 0.00 0.00 0.00 0.00 0.00 0.00 0.00 0.00 0.01 0.02 0.04 0.07 0.08 0.09 0.11
0.00 0.00 0.02 0.03 0.07 0.13 0.05 0.02 0.01 0.00 0.00 0.01 0.00 0.00 0.00 0.00 0.00 0.00 0.00 0.00 0.01 0.02 0.04 0.05 0.06 0.07 0.09
0.01 0.01 0.01 0.01 0.00 0.01 0.02 0.04 0.03 0.00 0.00 0.00 0.00 0.00 0.00 0.00 0.00 0.00 0.00 0.00 0.00 0.01 0.01 0.02 0.04 0.05 0.04
0.00 0.00 0.00 0.00 0.00 0.00 0.01 0.12 0.09 0.11 0.00 0.10 0.04 0.03 0.15 0.01 0.00 0.00 0.00 0.00 0.00 0.00 0.01 0.01 0.03 0.06 0.07
0.00 0.00 0.00 0.00 0.00 0.00 0.00 0.10 0.24 0.17 0.00 0.29 0.34 0.04 0.22 0.07 0.00 0.00 0.00 0.00 0.00 0.00 0.00 0.01 0.04 0.10 0.21
0.00 0.00 0.00 0.00 0.00 0.00 0.00 0.00 0.04 0.14 0.03 0.12 0.57 0.16 0.35 0.21 0.02 0.00 0.00 0.00 0.00 0.02 0.01 0.02 0.04 0.05 0.11
0.00 0.00 0.00 0.00 0.00 0.00 0.00 0.00 0.00 0.00 0.00 0.00 0.18 0.19 0.38 0.38 0.18 0.03 0.03 0.01 0.00 0.01 0.05 0.08 0.10 0.08 0.12
0.01 0.00 0.00 0.00 0.00 0.00 0.01 0.01 0.04 0.00 0.00 0.00 0.01 0.17 0.35 0.16 0.23 0.17 0.02 0.08 0.04 0.06 0.12 0.08 0.06 0.11 0.17
0.01 0.01 0.01 0.00 0.00 0.00 0.02 0.06 0.10 0.02 0.00 0.00 0.00 0.01 0.06 0.11 0.27 0.05 0.01 0.01 0.04 0.12 0.19 0.18 0.11 0.24 0.21
0.02 0.03 0.05 0.03 0.04 0.02 0.02 0.06 0.07 0.02 0.02 0.00 0.01 0.07 0.03 0.01 0.06 0.13 0.13 0.02 0.01 0.06 0.16 0.48 0.20 0.10 0.07
0.04 0.04 0.08 0.08 0.04 0.04 0.03 0.05 0.04 0.02 0.01 0.01 0.11 0.32 0.42 0.09 0.00 0.02 0.36 0.25 0.06 0.06 0.14 0.28 0.35 0.19 0.17

GFSFLT2_prec_precacc_054.txt.gz
Total_Precipitation_Accumulation
0.90 0.84 0.80 0.78 0.74 0.61 0.50 0.40 0.38 0.44 0.37 0.33 0.26 0.21 0.19 0.16 0.15 0.14 0.14 0.16 0.19 0.23 0.31 0.37 0.40 0.40 0.41
0.94 0.85 0.73 0.59 0.44 0.31 0.26 0.25 0.23 0.27 0.22 0.14 0.12 0.12 0.12 0.13 0.13 0.12 0.11 0.12 0.15 0.15 0.15 0.13 0.12 0.15 0.21
0.44 0.38 0.35 0.33 0.34 0.31 0.26 0.19 0.14 0.14 0.10 0.08 0.08 0.08 0.08 0.07 0.06 0.06 0.06 0.04 0.04 0.03 0.03 0.04 0.06 0.07 0.08
0.27 0.21 0.17 0.12 0.09 0.08 0.07 0.04 0.02 0.01 0.00 0.00 0.00 0.00 0.00 0.00 0.00 0.00 0.00 0.00 0.00 0.01 0.02 0.04 0.06 0.07 0.08
0.17 0.11 0.06 0.03 0.03 0.02 0.02 0.01 0.00 0.00 0.00 0.00 0.00 0.00 0.00 0.00 0.00 0.00 0.00 0.01 0.01 0.03 0.05 0.08 0.11 0.13 0.15
0.07 0.03 0.00 0.00 0.00 0.01 0.03 0.05 0.05 0.00 0.00 0.00 0.00 0.00 0.00 0.00 0.00 0.00 0.00 0.01 0.01 0.02 0.06 0.10 0.11 0.12 0.16
0.01 0.00 0.00 0.01 0.06 0.08 0.07 0.08 0.03 0.00 0.01 0.00 0.00 0.00 0.00 0.00 0.00 0.00 0.00 0.00 0.01 0.02 0.04 0.07 0.08 0.09 0.11
0.00 0.00 0.02 0.03 0.07 0.13 0.05 0.02 0.01 0.00 0.00 0.01 0.00 0.00 0.00 0.00 0.00 0.00 0.00 0.00 0.01 0.02 0.04 0.05 0.07 0.08 0.09
0.01 0.01 0.01 0.01 0.00 0.01 0.02 0.04 0.03 0.00 0.00 0.00 0.00 0.00 0.00 0.00 0.00 0.00 0.00 0.00 0.00 0.01 0.01 0.02 0.04 0.05 0.04
0.00 0.00 0.00 0.00 0.00 0.00 0.01 0.12 0.09 0.11 0.00 0.10 0.04 0.03 0.15 0.01 0.00 0.00 0.00 0.00 0.00 0.00 0.01 0.01 0.03 0.06 0.07
0.00 0.00 0.00 0.00 0.00 0.00 0.00 0.10 0.24 0.17 0.00 0.29 0.34 0.04 0.22 0.07 0.00 0.00 0.00 0.00 0.00 0.00 0.00 0.01 0.04 0.10 0.21
0.00 0.00 0.00 0.00 0.00 0.00 0.00 0.00 0.04 0.14 0.03 0.12 0.57 0.16 0.35 0.21 0.02 0.00 0.00 0.00 0.00 0.02 0.01 0.02 0.04 0.05 0.11
0.00 0.00 0.00 0.00 0.00 0.00 0.00 0.00 0.00 0.00 0.00 0.00 0.18 0.19 0.38 0.38 0.18 0.03 0.03 0.01 0.00 0.01 0.05 0.08 0.10 0.08 0.12
0.01 0.00 0.00 0.00 0.00 0.00 0.01 0.01 0.04 0.00 0.00 0.00 0.01 0.17 0.36 0.16 0.23 0.17 0.02 0.08 0.04 0.06 0.12 0.08 0.06 0.11 0.17
0.01 0.01 0.01 0.00 0.00 0.00 0.02 0.06 0.10 0.02 0.00 0.00 0.00 0.01 0.06 0.11 0.27 0.05 0.01 0.01 0.04 0.12 0.19 0.18 0.11 0.24 0.21
0.02 0.03 0.05 0.03 0.04 0.02 0.02 0.06 0.07 0.02 0.02 0.00 0.01 0.07 0.03 0.01 0.06 0.13 0.13 0.02 0.01 0.06 0.16 0.48 0.20 0.10 0.07
0.04 0.04 0.08 0.08 0.04 0.04 0.03 0.05 0.04 0.02 0.01 0.01 0.11 0.33 0.42 0.09 0.00 0.02 0.36 0.25 0.06 0.06 0.14 0.28 0.35 0.19 0.17

GFSFLT2_prec_precacc_057.txt.gz
Total_Precipitation_Accumulation
0.90 0.84 0.80 0.78 0.74 0.61 0.50 0.40 0.38 0.44 0.38 0.33 0.27 0.21 0.19 0.16 0.15 0.15 0.15 0.17 0.22 0.26 0.34 0.40 0.42 0.42 0.41
0.94 0.85 0.73 0.59 0.44 0.31 0.26 0.25 0.23 0.27 0.22 0.14 0.12 0.12 0.12 0.13 0.13 0.12 0.11 0.12 0.15 0.15 0.15 0.13 0.13 0.15 0.21
0.44 0.38 0.35 0.33 0.34 0.31 0.26 0.19 0.14 0.14 0.10 0.08 0.08 0.08 0.08 0.07 0.06 0.06 0.06 0.04 0.04 0.03 0.03 0.04 0.06 0.07 0.08
0.27 0.21 0.17 0.12 0.09 0.08 0.07 0.04 0.02 0.01 0.00 0.00 0.00 0.00 0.00 0.00 0.00 0.00 0.00 0.00 0.00 0.01 0.02 0.04 0.06 0.07 0.08
0.17 0.11 0.06 0.03 0.03 0.02 0.02 0.01 0.00 0.00 0.00 0.00 0.00 0.00 0.00 0.00 0.00 0.00 0.00 0.01 0.01 0.03 0.05 0.08 0.11 0.13 0.15
0.07 0.03 0.00 0.00 0.00 0.01 0.03 0.05 0.05 0.00 0.00 0.00 0.00 0.00 0.00 0.00 0.00 0.00 0.00 0.01 0.01 0.02 0.06 0.10 0.11 0.12 0.16
0.01 0.00 0.00 0.01 0.06 0.08 0.07 0.08 0.03 0.00 0.01 0.00 0.00 0.00 0.00 0.00 0.00 0.00 0.00 0.00 0.01 0.02 0.04 0.07 0.08 0.09 0.11
0.00 0.00 0.02 0.03 0.07 0.13 0.05 0.02 0.01 0.00 0.00 0.01 0.00 0.00 0.00 0.00 0.00 0.00 0.00 0.00 0.01 0.02 0.04 0.05 0.07 0.08 0.09
0.01 0.01 0.01 0.01 0.00 0.01 0.02 0.04 0.03 0.00 0.00 0.00 0.00 0.00 0.00 0.00 0.00 0.00 0.00 0.00 0.00 0.01 0.01 0.02 0.04 0.05 0.04
0.00 0.00 0.00 0.00 0.00 0.00 0.01 0.12 0.09 0.11 0.00 0.10 0.04 0.03 0.15 0.01 0.00 0.00 0.00 0.00 0.00 0.00 0.01 0.01 0.03 0.06 0.07
0.00 0.00 0.00 0.00 0.00 0.00 0.00 0.10 0.24 0.17 0.00 0.29 0.34 0.04 0.22 0.07 0.00 0.00 0.00 0.00 0.00 0.00 0.00 0.01 0.04 0.10 0.21
0.00 0.00 0.00 0.00 0.00 0.00 0.00 0.00 0.04 0.14 0.03 0.12 0.57 0.16 0.35 0.21 0.02 0.00 0.00 0.00 0.00 0.02 0.01 0.02 0.04 0.05 0.11
0.00 0.00 0.00 0.00 0.00 0.00 0.00 0.00 0.00 0.00 0.00 0.00 0.18 0.19 0.38 0.38 0.18 0.03 0.03 0.01 0.00 0.01 0.05 0.08 0.10 0.08 0.12
0.01 0.00 0.00 0.00 0.00 0.00 0.01 0.01 0.04 0.00 0.00 0.00 0.01 0.17 0.36 0.16 0.23 0.17 0.02 0.08 0.04 0.06 0.12 0.08 0.06 0.11 0.17
0.01 0.01 0.01 0.00 0.00 0.00 0.02 0.06 0.10 0.02 0.00 0.00 0.00 0.01 0.06 0.11 0.27 0.05 0.01 0.01 0.04 0.12 0.19 0.18 0.11 0.24 0.21
0.02 0.03 0.05 0.03 0.04 0.02 0.02 0.06 0.07 0.02 0.02 0.00 0.01 0.07 0.03 0.01 0.06 0.13 0.13 0.02 0.01 0.06 0.16 0.48 0.20 0.10 0.07
0.04 0.04 0.08 0.08 0.04 0.04 0.03 0.05 0.04 0.02 0.01 0.01 0.11 0.33 0.43 0.09 0.00 0.02 0.36 0.25 0.06 0.06 0.14 0.28 0.35 0.19 0.17

GFSFLT2_prec_precacc_063.txt.gz
Total_Precipitation_Accumulation
0.90 0.84 0.80 0.78 0.74 0.61 0.50 0.40 0.38 0.44 0.38 0.34 0.27 0.21 0.19 0.17 0.16 0.16 0.17 0.22 0.28 0.32 0.39 0.46 0.47 0.49 0.48
0.94 0.85 0.73 0.59 0.44 0.31 0.26 0.25 0.23 0.27 0.22 0.14 0.12 0.12 0.12 0.13 0.13 0.12 0.11 0.13 0.15 0.16 0.15 0.15 0.14 0.16 0.22
0.44 0.38 0.35 0.33 0.34 0.31 0.26 0.19 0.14 0.14 0.10 0.08 0.08 0.08 0.08 0.07 0.06 0.06 0.06 0.04 0.04 0.03 0.03 0.04 0.06 0.07 0.08
0.27 0.21 0.17 0.12 0.09 0.08 0.07 0.04 0.02 0.01 0.00 0.00 0.00 0.00 0.00 0.00 0.00 0.00 0.00 0.00 0.00 0.01 0.02 0.04 0.06 0.07 0.08
0.17 0.11 0.06 0.03 0.03 0.02 0.02 0.01 0.00 0.00 0.00 0.00 0.00 0.00 0.00 0.00 0.00 0.00 0.00 0.01 0.01 0.03 0.05 0.08 0.11 0.13 0.15
0.07 0.03 0.00 0.00 0.00 0.01 0.03 0.05 0.05 0.00 0.00 0.00 0.00 0.00 0.00 0.00 0.00 0.00 0.00 0.01 0.01 0.02 0.06 0.10 0.11 0.12 0.16
0.01 0.00 0.00 0.01 0.06 0.08 0.07 0.08 0.03 0.00 0.01 0.00 0.00 0.00 0.00 0.00 0.00 0.00 0.00 0.00 0.01 0.02 0.04 0.07 0.08 0.09 0.11
0.00 0.00 0.02 0.03 0.07 0.13 0.05 0.02 0.01 0.00 0.00 0.01 0.00 0.00 0.00 0.00 0.00 0.00 0.00 0.00 0.01 0.02 0.04 0.05 0.07 0.08 0.09
0.01 0.01 0.01 0.01 0.00 0.01 0.02 0.04 0.03 0.00 0.00 0.00 0.00 0.00 0.00 0.00 0.00 0.00 0.00 0.00 0.00 0.01 0.01 0.02 0.04 0.05 0.04
0.00 0.00 0.00 0.00 0.00 0.00 0.01 0.12 0.09 0.11 0.00 0.10 0.04 0.03 0.15 0.01 0.00 0.00 0.00 0.00 0.00 0.00 0.01 0.01 0.03 0.06 0.07
0.00 0.00 0.00 0.00 0.00 0.00 0.00 0.10 0.24 0.17 0.00 0.29 0.34 0.04 0.22 0.07 0.00 0.00 0.00 0.00 0.00 0.00 0.00 0.01 0.04 0.10 0.21
0.00 0.00 0.00 0.00 0.00 0.00 0.00 0.00 0.04 0.14 0.03 0.12 0.57 0.16 0.35 0.21 0.02 0.00 0.00 0.00 0.00 0.02 0.01 0.02 0.04 0.05 0.11
0.00 0.00 0.00 0.00 0.00 0.00 0.00 0.00 0.00 0.00 0.00 0.00 0.18 0.19 0.38 0.38 0.18 0.03 0.03 0.01 0.00 0.01 0.05 0.08 0.10 0.08 0.12
0.01 0.00 0.00 0.00 0.00 0.00 0.01 0.01 0.04 0.00 0.00 0.00 0.01 0.17 0.36 0.16 0.23 0.17 0.02 0.08 0.04 0.06 0.12 0.08 0.06 0.11 0.17
0.01 0.01 0.01 0.00 0.00 0.00 0.02 0.06 0.10 0.02 0.00 0.00 0.00 0.01 0.06 0.11 0.27 0.05 0.01 0.01 0.04 0.12 0.19 0.18 0.11 0.24 0.21
0.02 0.03 0.05 0.03 0.04 0.02 0.02 0.06 0.07 0.02 0.02 0.00 0.01 0.07 0.03 0.01 0.06 0.13 0.13 0.02 0.01 0.06 0.16 0.48 0.20 0.10 0.07
0.04 0.04 0.08 0.08 0.04 0.04 0.03 0.05 0.04 0.02 0.01 0.01 0.11 0.33 0.44 0.10 0.00 0.02 0.36 0.25 0.06 0.06 0.14 0.28 0.35 0.19 0.17

GFSFLT2_prec_precacc_066.txt.gz
Total_Precipitation_Accumulation
0.90 0.84 0.80 0.78 0.74 0.61 0.50 0.40 0.38 0.44 0.38 0.34 0.27 0.21 0.19 0.17 0.16 0.16 0.17 0.22 0.29 0.33 0.40 0.46 0.48 0.52 0.54
0.94 0.85 0.73 0.59 0.44 0.31 0.26 0.25 0.23 0.27 0.22 0.14 0.12 0.12 0.12 0.13 0.13 0.12 0.11 0.13 0.15 0.17 0.16 0.16 0.16 0.17 0.23
0.44 0.38 0.35 0.33 0.34 0.31 0.26 0.19 0.14 0.14 0.10 0.08 0.08 0.08 0.08 0.07 0.06 0.06 0.06 0.04 0.04 0.03 0.03 0.04 0.06 0.07 0.08
0.27 0.21 0.17 0.12 0.09 0.08 0.07 0.04 0.02 0.01 0.00 0.00 0.00 0.00 0.00 0.00 0.00 0.00 0.00 0.00 0.00 0.01 0.02 0.04 0.06 0.07 0.08
0.17 0.11 0.06 0.03 0.03 0.02 0.02 0.01 0.00 0.00 0.00 0.00 0.00 0.00 0.00 0.00 0.00 0.00 0.00 0.01 0.01 0.03 0.05 0.08 0.11 0.13 0.15
0.07 0.03 0.00 0.00 0.00 0.01 0.03 0.05 0.05 0.00 0.00 0.00 0.00 0.00 0.00 0.00 0.00 0.00 0.00 0.01 0.01 0.02 0.06 0.10 0.11 0.12 0.16
0.01 0.00 0.00 0.01 0.06 0.08 0.07 0.08 0.03 0.00 0.01 0.00 0.00 0.00 0.00 0.00 0.00 0.00 0.00 0.00 0.01 0.02 0.04 0.07 0.08 0.09 0.11
0.00 0.00 0.02 0.03 0.07 0.13 0.05 0.02 0.01 0.00 0.00 0.01 0.00 0.00 0.00 0.00 0.00 0.00 0.00 0.00 0.01 0.02 0.04 0.05 0.07 0.08 0.09
0.01 0.01 0.01 0.01 0.00 0.01 0.02 0.04 0.03 0.00 0.00 0.00 0.00 0.00 0.00 0.00 0.00 0.00 0.00 0.00 0.00 0.01 0.01 0.02 0.04 0.05 0.04
0.00 0.00 0.00 0.00 0.00 0.00 0.01 0.12 0.09 0.11 0.00 0.10 0.04 0.03 0.15 0.01 0.00 0.00 0.00 0.00 0.00 0.00 0.01 0.01 0.03 0.06 0.07
0.00 0.00 0.00 0.00 0.00 0.00 0.00 0.10 0.24 0.17 0.00 0.29 0.34 0.04 0.22 0.07 0.00 0.00 0.00 0.00 0.00 0.00 0.00 0.01 0.04 0.10 0.21
0.00 0.00 0.00 0.00 0.00 0.00 0.00 0.00 0.04 0.14 0.03 0.12 0.57 0.16 0.35 0.21 0.02 0.00 0.00 0.00 0.00 0.02 0.01 0.02 0.04 0.05 0.11
0.00 0.00 0.00 0.00 0.00 0.00 0.00 0.00 0.00 0.00 0.00 0.00 0.18 0.19 0.38 0.38 0.18 0.03 0.03 0.01 0.00 0.01 0.05 0.08 0.10 0.08 0.12
0.01 0.00 0.00 0.00 0.00 0.00 0.01 0.01 0.04 0.00 0.00 0.00 0.01 0.17 0.36 0.16 0.23 0.17 0.02 0.08 0.04 0.06 0.12 0.08 0.06 0.11 0.17
0.01 0.01 0.01 0.00 0.00 0.00 0.02 0.06 0.10 0.02 0.00 0.00 0.00 0.01 0.06 0.11 0.27 0.05 0.01 0.01 0.04 0.12 0.19 0.18 0.11 0.24 0.21
0.02 0.03 0.05 0.03 0.04 0.02 0.02 0.06 0.07 0.02 0.02 0.00 0.01 0.07 0.03 0.01 0.06 0.13 0.13 0.02 0.01 0.06 0.16 0.48 0.20 0.10 0.07
0.04 0.04 0.08 0.08 0.04 0.04 0.03 0.05 0.04 0.02 0.01 0.01 0.11 0.33 0.44 0.10 0.00 0.02 0.36 0.25 0.06 0.06 0.14 0.28 0.35 0.19 0.17

GFSFLT2_prec_precacc_069.txt.gz
Total_Precipitation_Accumulation
0.90 0.84 0.80 0.78 0.74 0.61 0.50 0.40 0.38 0.44 0.38 0.34 0.27 0.21 0.19 0.17 0.16 0.16 0.18 0.22 0.30 0.34 0.40 0.47 0.49 0.54 0.59
0.94 0.85 0.73 0.59 0.44 0.31 0.26 0.25 0.23 0.27 0.22 0.14 0.12 0.12 0.12 0.13 0.13 0.12 0.11 0.13 0.15 0.17 0.16 0.16 0.16 0.17 0.23
0.44 0.38 0.35 0.33 0.34 0.31 0.26 0.19 0.14 0.14 0.10 0.08 0.08 0.08 0.08 0.07 0.06 0.06 0.06 0.04 0.04 0.03 0.03 0.04 0.06 0.07 0.09
0.27 0.21 0.17 0.12 0.09 0.08 0.07 0.04 0.02 0.01 0.00 0.00 0.00 0.00 0.00 0.00 0.00 0.00 0.00 0.00 0.00 0.01 0.02 0.04 0.06 0.07 0.08
0.17 0.11 0.06 0.03 0.03 0.02 0.02 0.01 0.00 0.00 0.00 0.00 0.00 0.00 0.00 0.00 0.00 0.00 0.00 0.01 0.01 0.03 0.05 0.08 0.11 0.13 0.15
0.07 0.03 0.00 0.00 0.00 0.01 0.03 0.05 0.05 0.00 0.00 0.00 0.00 0.00 0.00 0.00 0.00 0.00 0.00 0.01 0.01 0.02 0.06 0.10 0.11 0.12 0.16
0.01 0.00 0.00 0.01 0.06 0.08 0.07 0.08 0.03 0.00 0.01 0.00 0.00 0.00 0.00 0.00 0.00 0.00 0.00 0.00 0.01 0.02 0.04 0.07 0.08 0.09 0.11
0.00 0.00 0.02 0.03 0.07 0.13 0.05 0.02 0.01 0.00 0.00 0.01 0.00 0.00 0.00 0.00 0.00 0.00 0.00 0.00 0.01 0.02 0.04 0.05 0.07 0.08 0.09
0.01 0.01 0.01 0.01 0.00 0.01 0.02 0.04 0.03 0.00 0.00 0.00 0.00 0.00 0.00 0.00 0.00 0.00 0.00 0.00 0.00 0.01 0.01 0.02 0.04 0.05 0.04
0.00 0.00 0.00 0.00 0.00 0.00 0.01 0.12 0.09 0.11 0.00 0.10 0.04 0.03 0.15 0.01 0.00 0.00 0.00 0.00 0.00 0.00 0.01 0.01 0.03 0.06 0.07
0.00 0.00 0.00 0.00 0.00 0.00 0.00 0.10 0.24 0.17 0.00 0.29 0.34 0.04 0.22 0.07 0.00 0.00 0.00 0.00 0.00 0.00 0.00 0.01 0.04 0.10 0.21
0.00 0.00 0.00 0.00 0.00 0.00 0.00 0.00 0.04 0.14 0.03 0.12 0.57 0.16 0.35 0.21 0.02 0.00 0.00 0.00 0.00 0.02 0.01 0.02 0.04 0.05 0.11
0.00 0.00 0.00 0.00 0.00 0.00 0.00 0.00 0.00 0.00 0.00 0.00 0.18 0.19 0.38 0.38 0.18 0.03 0.03 0.01 0.00 0.01 0.05 0.08 0.10 0.08 0.12
0.01 0.00 0.00 0.00 0.00 0.00 0.01 0.01 0.04 0.00 0.00 0.00 0.01 0.17 0.36 0.16 0.23 0.17 0.02 0.08 0.04 0.06 0.12 0.08 0.06 0.11 0.17
0.02 0.01 0.01 0.00 0.00 0.00 0.02 0.06 0.10 0.02 0.00 0.00 0.00 0.01 0.06 0.11 0.27 0.05 0.01 0.01 0.04 0.12 0.19 0.18 0.11 0.24 0.21
0.02 0.03 0.05 0.03 0.04 0.02 0.02 0.06 0.07 0.02 0.02 0.00 0.01 0.07 0.03 0.01 0.06 0.13 0.13 0.02 0.01 0.06 0.16 0.48 0.20 0.10 0.07
0.04 0.04 0.08 0.08 0.04 0.04 0.03 0.05 0.04 0.02 0.01 0.01 0.11 0.33 0.44 0.10 0.00 0.02 0.36 0.25 0.06 0.06 0.14 0.28 0.35 0.19 0.17

GFSFLT2_prec_precacc_072.txt.gz
Total_Precipitation_Accumulation
0.92 0.85 0.81 0.78 0.75 0.61 0.50 0.40 0.38 0.44 0.38 0.34 0.27 0.21 0.19 0.17 0.16 0.16 0.18 0.22 0.30 0.36 0.43 0.50 0.57 0.63 0.65
0.94 0.85 0.74 0.59 0.44 0.31 0.26 0.25 0.23 0.27 0.22 0.14 0.12 0.12 0.12 0.13 0.13 0.12 0.11 0.13 0.16 0.17 0.17 0.16 0.17 0.20 0.27
0.44 0.38 0.35 0.33 0.34 0.31 0.26 0.19 0.14 0.14 0.10 0.08 0.08 0.08 0.08 0.07 0.06 0.06 0.06 0.04 0.04 0.03 0.03 0.04 0.06 0.07 0.09
0.28 0.21 0.17 0.12 0.09 0.08 0.07 0.04 0.02 0.01 0.00 0.00 0.00 0.00 0.00 0.00 0.00 0.00 0.00 0.00 0.00 0.01 0.02 0.04 0.06 0.07 0.08
0.17 0.11 0.06 0.03 0.03 0.02 0.02 0.01 0.00 0.00 0.00 0.00 0.00 0.00 0.00 0.00 0.00 0.00 0.00 0.01 0.01 0.03 0.05 0.08 0.11 0.13 0.15
0.07 0.03 0.00 0.00 0.00 0.01 0.03 0.05 0.05 0.00 0.00 0.00 0.00 0.00 0.00 0.00 0.00 0.00 0.00 0.01 0.01 0.02 0.06 0.10 0.11 0.12 0.16
0.01 0.00 0.00 0.01 0.06 0.08 0.07 0.08 0.03 0.00 0.01 0.00 0.00 0.00 0.00 0.00 0.00 0.00 0.00 0.00 0.01 0.02 0.04 0.07 0.08 0.09 0.11
0.00 0.00 0.02 0.03 0.07 0.13 0.05 0.02 0.01 0.00 0.00 0.01 0.00 0.00 0.00 0.00 0.00 0.00 0.00 0.00 0.01 0.02 0.04 0.05 0.07 0.08 0.09
0.01 0.01 0.01 0.01 0.00 0.01 0.02 0.04 0.03 0.00 0.00 0.00 0.00 0.00 0.00 0.00 0.00 0.00 0.00 0.00 0.00 0.01 0.01 0.02 0.04 0.05 0.04
0.00 0.00 0.00 0.00 0.00 0.00 0.01 0.12 0.09 0.11 0.00 0.10 0.04 0.03 0.15 0.01 0.00 0.00 0.00 0.00 0.00 0.00 0.01 0.01 0.03 0.06 0.07
0.00 0.00 0.00 0.00 0.00 0.00 0.00 0.10 0.24 0.17 0.00 0.29 0.34 0.04 0.22 0.07 0.00 0.00 0.00 0.00 0.00 0.00 0.00 0.01 0.04 0.10 0.21
0.00 0.00 0.00 0.00 0.00 0.00 0.00 0.00 0.04 0.14 0.03 0.12 0.57 0.16 0.35 0.21 0.02 0.00 0.00 0.00 0.00 0.02 0.01 0.02 0.04 0.05 0.11
0.00 0.00 0.00 0.00 0.00 0.00 0.00 0.00 0.00 0.00 0.00 0.00 0.18 0.19 0.38 0.38 0.18 0.03 0.03 0.01 0.00 0.01 0.05 0.08 0.10 0.08 0.12
0.01 0.01 0.00 0.00 0.00 0.00 0.01 0.01 0.04 0.00 0.00 0.00 0.01 0.17 0.36 0.16 0.23 0.17 0.02 0.08 0.04 0.06 0.12 0.08 0.06 0.11 0.17
0.02 0.02 0.01 0.00 0.00 0.00 0.02 0.06 0.10 0.02 0.00 0.00 0.00 0.01 0.06 0.11 0.27 0.05 0.01 0.01 0.04 0.12 0.19 0.18 0.11 0.24 0.21
0.02 0.03 0.05 0.03 0.04 0.02 0.02 0.06 0.07 0.02 0.02 0.00 0.01 0.07 0.03 0.01 0.06 0.13 0.13 0.02 0.01 0.06 0.16 0.49 0.20 0.10 0.07
0.04 0.04 0.08 0.08 0.04 0.04 0.03 0.05 0.04 0.02 0.01 0.01 0.11 0.33 0.44 0.10 0.00 0.02 0.36 0.25 0.06 0.06 0.14 0.28 0.35 0.19 0.17

GFSFLT2_prec_precacc_075.txt.gz
Total_Precipitation_Accumulation
0.92 0.85 0.81 0.79 0.76 0.62 0.50 0.40 0.38 0.44 0.38 0.34 0.27 0.21 0.19 0.17 0.16 0.16 0.18 0.22 0.31 0.37 0.46 0.51 0.58 0.66 0.69
0.95 0.86 0.74 0.59 0.44 0.31 0.26 0.25 0.23 0.27 0.22 0.14 0.12 0.12 0.12 0.13 0.13 0.12 0.11 0.13 0.16 0.17 0.17 0.18 0.18 0.22 0.31
0.45 0.38 0.35 0.33 0.35 0.31 0.26 0.19 0.14 0.14 0.10 0.08 0.08 0.08 0.08 0.07 0.06 0.06 0.06 0.04 0.04 0.03 0.03 0.05 0.06 0.07 0.09
0.28 0.21 0.17 0.12 0.09 0.08 0.07 0.04 0.02 0.01 0.00 0.00 0.00 0.00 0.00 0.00 0.00 0.00 0.00 0.00 0.00 0.01 0.02 0.04 0.06 0.07 0.08
0.18 0.11 0.06 0.03 0.03 0.02 0.02 0.01 0.00 0.00 0.00 0.00 0.00 0.00 0.00 0.00 0.00 0.00 0.00 0.01 0.01 0.03 0.05 0.08 0.11 0.13 0.15
0.08 0.03 0.00 0.00 0.00 0.01 0.03 0.05 0.05 0.00 0.00 0.00 0.00 0.00 0.00 0.00 0.00 0.00 0.00 0.01 0.01 0.02 0.06 0.10 0.11 0.12 0.16
0.01 0.00 0.00 0.01 0.06 0.08 0.07 0.08 0.03 0.00 0.01 0.00 0.00 0.00 0.00 0.00 0.00 0.00 0.00 0.00 0.01 0.02 0.04 0.07 0.08 0.09 0.11
0.00 0.00 0.02 0.03 0.07 0.13 0.05 0.02 0.01 0.00 0.00 0.01 0.00 0.00 0.00 0.00 0.00 0.00 0.00 0.00 0.01 0.02 0.04 0.05 0.07 0.08 0.09
0.01 0.01 0.01 0.01 0.00 0.01 0.02 0.04 0.03 0.00 0.00 0.00 0.00 0.00 0.00 0.00 0.00 0.00 0.00 0.00 0.00 0.01 0.01 0.02 0.04 0.05 0.04
0.00 0.00 0.00 0.00 0.00 0.00 0.01 0.12 0.09 0.11 0.00 0.10 0.04 0.03 0.15 0.01 0.00 0.00 0.00 0.00 0.00 0.00 0.01 0.01 0.03 0.06 0.07
0.00 0.00 0.00 0.00 0.00 0.00 0.00 0.10 0.24 0.17 0.00 0.29 0.34 0.04 0.22 0.07 0.00 0.00 0.00 0.00 0.00 0.00 0.00 0.01 0.04 0.10 0.21
0.00 0.00 0.00 0.00 0.00 0.00 0.00 0.00 0.04 0.14 0.03 0.12 0.57 0.16 0.35 0.21 0.02 0.00 0.00 0.00 0.00 0.02 0.01 0.02 0.04 0.05 0.11
0.00 0.00 0.00 0.00 0.00 0.00 0.00 0.00 0.00 0.00 0.00 0.00 0.18 0.19 0.38 0.38 0.18 0.03 0.03 0.01 0.00 0.01 0.05 0.08 0.10 0.08 0.12
0.01 0.01 0.00 0.00 0.00 0.00 0.01 0.01 0.04 0.00 0.00 0.00 0.01 0.17 0.36 0.16 0.23 0.17 0.02 0.08 0.04 0.06 0.12 0.08 0.06 0.11 0.17
0.02 0.02 0.01 0.00 0.00 0.00 0.02 0.06 0.10 0.02 0.00 0.00 0.00 0.01 0.06 0.11 0.27 0.05 0.01 0.01 0.04 0.12 0.19 0.18 0.11 0.24 0.21
0.02 0.03 0.05 0.03 0.04 0.02 0.02 0.06 0.07 0.02 0.02 0.00 0.01 0.07 0.03 0.01 0.06 0.13 0.13 0.02 0.01 0.06 0.16 0.49 0.20 0.10 0.07
0.04 0.04 0.08 0.08 0.04 0.04 0.03 0.05 0.04 0.02 0.01 0.01 0.11 0.33 0.44 0.10 0.00 0.02 0.36 0.25 0.06 0.06 0.14 0.28 0.35 0.19 0.17

GFSFLT2_prec_precacc_081.txt.gz
Total_Precipitation_Accumulation
0.92 0.85 0.81 0.79 0.76 0.62 0.50 0.40 0.39 0.46 0.39 0.34 0.27 0.21 0.19 0.17 0.16 0.16 0.18 0.23 0.31 0.38 0.49 0.54 0.60 0.68 0.76
0.95 0.86 0.75 0.60 0.45 0.32 0.27 0.25 0.23 0.29 0.22 0.14 0.12 0.12 0.12 0.13 0.13 0.12 0.11 0.13 0.16 0.18 0.19 0.21 0.23 0.28 0.38
0.45 0.38 0.35 0.34 0.35 0.31 0.27 0.20 0.14 0.15 0.10 0.08 0.08 0.08 0.08 0.07 0.06 0.06 0.06 0.04 0.04 0.03 0.05 0.07 0.09 0.11 0.17
0.29 0.22 0.17 0.13 0.10 0.10 0.07 0.04 0.02 0.01 0.01 0.00 0.00 0.00 0.00 0.00 0.00 0.00 0.00 0.00 0.00 0.01 0.02 0.04 0.08 0.09 0.10
0.18 0.12 0.07 0.04 0.04 0.03 0.03 0.02 0.00 0.00 0.00 0.00 0.00 0.00 0.00 0.00 0.00 0.00 0.00 0.01 0.01 0.03 0.05 0.08 0.11 0.14 0.16
0.08 0.03 0.01 0.00 0.00 0.01 0.03 0.06 0.05 0.00 0.00 0.00 0.00 0.00 0.00 0.00 0.00 0.00 0.00 0.01 0.01 0.02 0.06 0.10 0.11 0.12 0.16
0.01 0.00 0.00 0.01 0.06 0.08 0.07 0.08 0.03 0.00 0.01 0.00 0.00 0.00 0.00 0.00 0.00 0.00 0.00 0.00 0.01 0.02 0.04 0.07 0.08 0.09 0.11
0.00 0.00 0.02 0.03 0.07 0.13 0.05 0.02 0.01 0.00 0.00 0.01 0.00 0.00 0.00 0.00 0.00 0.00 0.00 0.00 0.01 0.02 0.04 0.05 0.07 0.08 0.09
0.01 0.01 0.01 0.01 0.00 0.01 0.02 0.04 0.03 0.00 0.00 0.00 0.00 0.00 0.00 0.00 0.00 0.00 0.00 0.00 0.00 0.01 0.01 0.02 0.04 0.05 0.04
0.00 0.00 0.00 0.00 0.00 0.00 0.01 0.12 0.09 0.11 0.00 0.10 0.04 0.03 0.15 0.01 0.00 0.00 0.00 0.00 0.00 0.00 0.01 0.01 0.03 0.06 0.07
0.00 0.00 0.00 0.00 0.00 0.00 0.00 0.10 0.24 0.18 0.00 0.29 0.34 0.04 0.23 0.07 0.00 0.00 0.00 0.00 0.00 0.00 0.00 0.01 0.04 0.10 0.21
0.00 0.00 0.00 0.00 0.00 0.00 0.00 0.00 0.04 0.14 0.03 0.12 0.57 0.16 0.35 0.21 0.02 0.00 0.00 0.00 0.00 0.02 0.01 0.02 0.04 0.05 0.11
0.00 0.00 0.00 0.00 0.00 0.00 0.00 0.00 0.00 0.00 0.00 0.00 0.18 0.19 0.38 0.38 0.18 0.03 0.03 0.01 0.00 0.01 0.05 0.08 0.10 0.08 0.12
0.01 0.01 0.00 0.00 0.00 0.00 0.01 0.01 0.04 0.00 0.00 0.00 0.01 0.17 0.36 0.16 0.23 0.17 0.02 0.08 0.04 0.06 0.12 0.08 0.06 0.11 0.17
0.02 0.02 0.01 0.00 0.00 0.00 0.02 0.06 0.10 0.02 0.00 0.00 0.00 0.01 0.06 0.11 0.27 0.05 0.01 0.01 0.04 0.12 0.19 0.18 0.11 0.24 0.21
0.02 0.03 0.05 0.03 0.04 0.02 0.02 0.06 0.07 0.02 0.02 0.00 0.01 0.07 0.03 0.01 0.06 0.13 0.13 0.02 0.01 0.06 0.16 0.49 0.20 0.10 0.07
0.04 0.04 0.08 0.08 0.04 0.04 0.03 0.05 0.04 0.02 0.01 0.01 0.11 0.33 0.44 0.10 0.00 0.02 0.36 0.25 0.06 0.06 0.14 0.28 0.35 0.19 0.17